Location: Lugrin
(46.4033°N, 6.6674°E)
Time: 14:57:18
(UTC+00:00)

Cosmos 1867 - Pass Details

Date: 18 September 2020
Orbit: 777 x 799 km, 65.0° (Epoch: 24 October)

Event Time Altitude Azimuth Distance (km) Brightness Sun altitude
Rises 18:25:43 0° 325° (NW) 3,313 7.6 -8.9°
Reaches altitude 10° 18:28:12 10° 329° (NNW) 2,380 6.7 -9.4°
Maximum altitude 18:33:37 59° 49° (NE) 921 3.7 -10.3°
Enters shadow 18:38:38 12° 128° (SE) 2,233 5.3 -11.1°
